Change the Weather History Date:

Saturday, November 12, 2011

  Actual Average Record
Temperature  
Mean Temperature 24 °F 26 °F  
Max Temperature 35 °F 40 °F 63 °F (1999)
Min Temperature 12 °F 12 °F -15 °F (2014)
Degree Days  
Heating Degree Days 42 39  
Month to date heating degree days 436  
Since 1 July heating degree days 2016  
Cooling Degree Days 0 0  
Month to date cooling degree days 0  
Year to date cooling degree days 35  
Moisture  
Dew Point 22 °F    
Average Humidity 81    
Maximum Humidity 100    
Minimum Humidity 49    
Precipitation  
Precipitation 0.00 in 0.01 in 0.30 in (1978)
Month to date precipitation 0.09  
Year to date precipitation 6.06  
Sea Level Pressure  
Sea Level Pressure 29.62 in    
Wind  
Wind Speed 11 mph (WSW)    
Max Wind Speed 29 mph    
Max Gust Speed 39 mph    
Visibility 6 miles    
Events Fog , Snow    
T = Trace of Precipitation, MM = Missing Value Source: NWS Daily Summary

Daily Weather History Graph

Daily Weather History Graph

Search for Another Location

Airport or City:

Trip Planner

Search our weather history database for the weather conditions in past years. The results will help you decide how hot, cold, wet, or windy it might be!

Date:

Astronomy

Nov. 12, 2011 Rise Set
Actual Time 7:07 AM MST 5:00 PM MST
Civil Twilight 6:37 AM MST 5:30 PM MST
Nautical Twilight 6:03 AM MST 6:04 PM MST
Astronomical Twilight 5:30 AM MST 6:38 PM MST
Moon 6:17 PM MST (11/12) 8:55 AM MST (11/12)
Length of Visible Light 10h 53m
Length of Day
9h 53m
Waning Gibbous, 97% of the Moon is Illuminated
Nov 12
Waning Gibbous
Nov 18
Last Quarter
Nov 24
New
Dec 2
First Quarter
Dec 10
Full

Hourly Weather History & Observations

Time (MST) Temp. Windchill Dew Point Humidity Pressure Visibility Wind Dir Wind Speed Gust Speed Precip Events Conditions
12:53 AM 23.0 °F 13.9 °F 7.0 °F 50% 29.69 in 10.0 mi ESE 8.1 mph - N/A   Overcast
1:53 AM 25.0 °F 19.3 °F 8.1 °F 49% 29.67 in 10.0 mi East 4.6 mph - N/A   Overcast
2:53 AM 26.1 °F 17.6 °F 9.0 °F 49% 29.63 in 10.0 mi NE 8.1 mph - N/A   Overcast
3:53 AM 26.1 °F 20.5 °F 9.0 °F 49% 29.61 in 10.0 mi East 4.6 mph - N/A   Overcast
4:53 AM 28.4 °F 24.6 °F 12.2 °F 51% 29.64 in 10.0 mi South 3.5 mph - N/A   Overcast
5:53 AM 32.0 °F 22.5 °F 23.0 °F 69% 29.61 in 10.0 mi South 12.7 mph - N/A   Overcast
6:53 AM 32.0 °F 21.6 °F 25.0 °F 75% 29.61 in 9.0 mi South 15.0 mph - N/A   Overcast
7:53 AM 30.9 °F 21.7 °F 28.0 °F 89% 29.62 in 9.0 mi South 11.5 mph - N/A   Overcast
8:03 AM 30.2 °F 21.9 °F 28.4 °F 93% 29.60 in 9.0 mi SSE 9.2 mph - N/A   Overcast
8:11 AM 30.2 °F 20.8 °F 26.6 °F 86% 29.60 in 10.0 mi South 11.5 mph - N/A   Overcast
8:45 AM 32.0 °F 21.6 °F 28.4 °F 87% 29.59 in 2.5 mi South 15.0 mph - 0.00 in Snow Light Snow
8:53 AM 32.0 °F 21.6 °F 28.9 °F 88% 29.64 in 1.8 mi SSW 15.0 mph - 0.00 in Snow Light Snow
9:34 AM 32.0 °F 23.0 °F 30.2 °F 93% 29.58 in 1.2 mi SSW 11.5 mph - 0.00 in Snow Light Snow
9:53 AM 33.1 °F 23.4 °F 30.9 °F 92% 29.60 in 1.2 mi SSW 13.8 mph - 0.00 in Snow Light Snow
10:21 AM 33.8 °F 25.3 °F 30.2 °F 87% 29.57 in 0.8 mi SSW 11.5 mph - 0.00 in Snow Light Snow
10:46 AM 33.8 °F 25.3 °F 32.0 °F 93% 29.57 in 1.0 mi SW 11.5 mph - 0.00 in Snow Light Snow
10:53 AM 33.1 °F 24.4 °F 32.0 °F 96% 29.58 in 1.0 mi SW 11.5 mph - 0.00 in Snow Light Snow
11:01 AM 33.8 °F 24.3 °F 32.0 °F 93% 29.57 in 1.0 mi SW 13.8 mph - 0.00 in Snow Light Snow
11:11 AM 33.8 °F 26.4 °F 32.0 °F 93% 29.56 in 0.8 mi SW 9.2 mph - 0.00 in Snow Light Snow
11:53 AM 34.0 °F 25.5 °F 33.1 °F 96% 29.54 in 2.0 mi SW 11.5 mph - 0.00 in Snow Light Snow
12:00 PM 33.8 °F 25.3 °F 33.8 °F 100% 29.53 in 3.0 mi SW 11.5 mph - 0.00 in Snow Light Snow
12:14 PM 35.6 °F 25.9 °F 33.8 °F 93% 29.52 in 8.0 mi SW 16.1 mph - 0.00 in   Overcast
12:47 PM 33.8 °F 22.2 °F 30.2 °F 87% 29.53 in 1.5 mi West 20.7 mph 33.4 mph 0.00 in Snow Light Snow
12:50 PM 32.0 °F 17.9 °F 30.2 °F 93% 29.54 in 0.5 mi WNW 28.8 mph 39.1 mph 0.00 in Fog , Snow Snow
12:53 PM 30.9 °F 18.7 °F 28.9 °F 92% 29.55 in 0.5 mi WNW 19.6 mph 39.1 mph 0.00 in Fog , Snow Snow
1:02 PM 30.2 °F 16.8 °F 26.6 °F 86% 29.54 in 3.0 mi WNW 23.0 mph 34.5 mph 0.00 in Snow Light Snow
1:12 PM 30.2 °F 18.1 °F 28.4 °F 93% 29.54 in 1.8 mi WNW 18.4 mph - 0.00 in Snow Light Snow
1:25 PM 30.2 °F 16.2 °F 26.6 °F 86% 29.56 in 2.5 mi NW 25.3 mph 31.1 mph 0.00 in Snow Light Snow
1:32 PM 28.4 °F 14.7 °F 24.8 °F 86% 29.56 in 6.0 mi NW 21.9 mph 32.2 mph 0.00 in Snow Light Snow
1:53 PM 30.0 °F 19.1 °F 26.1 °F 85% 29.56 in 3.0 mi WNW 15.0 mph - 0.00 in Snow Light Snow
2:22 PM 28.4 °F 19.1 °F 24.8 °F 86% 29.56 in 2.5 mi West 10.4 mph 18.4 mph 0.00 in Snow Light Snow
2:31 PM 30.2 °F 21.3 °F 24.8 °F 80% 29.56 in 7.0 mi WNW 10.4 mph - 0.00 in Snow Light Snow
2:53 PM 30.0 °F 18.3 °F 21.0 °F 69% 29.58 in 10.0 mi NW 17.3 mph 21.9 mph 0.00 in   Partly Cloudy
3:53 PM 24.1 °F 11.0 °F 10.9 °F 57% 29.66 in 10.0 mi NW 16.1 mph - N/A   Clear
4:53 PM 21.9 °F 10.4 °F 12.9 °F 68% 29.68 in 10.0 mi NW 11.5 mph - N/A   Overcast
5:08 PM 21.2 °F 13.6 °F 14.0 °F 74% 29.65 in 2.0 mi NNW 5.8 mph - 0.00 in Snow Light Snow
5:16 PM 19.4 °F 10.4 °F 14.0 °F 80% 29.65 in 4.0 mi Variable 6.9 mph - 0.00 in Snow Light Snow
5:53 PM 19.9 °F 13.4 °F 14.0 °F 78% 29.70 in 9.0 mi WNW 4.6 mph - 0.00 in   Overcast
6:53 PM 15.1 °F 7.7 °F 12.0 °F 88% 29.74 in 10.0 mi South 4.6 mph - N/A   Mostly Cloudy
7:53 PM 15.1 °F 6.4 °F 10.9 °F 84% 29.77 in 10.0 mi SE 5.8 mph - N/A   Clear
8:53 PM 12.0 °F 4.1 °F 10.0 °F 92% 29.78 in 10.0 mi North 4.6 mph - N/A   Clear
9:53 PM 12.0 °F - 9.0 °F 88% 29.77 in 10.0 mi Calm Calm - N/A   Scattered Clouds
10:53 PM 14.0 °F 2.9 °F 9.0 °F 80% 29.75 in 10.0 mi ENE 8.1 mph - N/A   Scattered Clouds
11:53 PM 15.1 °F 7.7 °F 10.0 °F 80% 29.75 in 10.0 mi NW 4.6 mph - N/A   Clear